Home > Weather > Sanandaj > Past weeks

Flag for Iran Weather for the Past 2 Weeks in Sanandaj, Iran

Now
79 °F

Partly sunny.


Feels Like: 78 °F
Forecast: 53 / 75 °F
Wind: 14 mph from Southwest

Location: Sanandaj Airport

Current Time: May 4, 2016 at 5:24:46 PM

Latest Report: May 4, 2016 at 4:30 PM


Visibility: N/A

Pressure: 29.92 "Hg (25.20 "Hg at 1502m altitude)

Humidity: 26%

Dew Point: 41 °F

Location of SanandajLocation

Historic Weather in Sanandaj — Graph

°F

Sanandaj Temperature Yesterday

Maximum temperature yesterday: 79 °F (at 3:30 PM)
Minimum temperature yesterday: 45 °F (at 6:30 AM)
Average temperature yesterday: 61 °F

High & Low Weather Summary for the Past Weeks

 TemperatureHumidityPressure
High84 °F (Apr 27, 3:00 PM)94% (Apr 29, 10:24 PM)30.27 "Hg (Apr 29, 10:24 PM)
Low36 °F (Apr 21, 7:30 AM)15% (Apr 22, 4:22 PM)29.86 "Hg (Apr 21, 3:24 AM)
Average61 °F51%30.06 "Hg
* Reported Apr 19 2:30 PM — May 4 3:22 PM, Sanandaj, Weather by CustomWeather, © 2016

Note: Actual official high and low records may vary slightly from our data, if they occured in-between our weather recording intervals... More about our weather records

Advertising

Sanandaj Weather History for the Previous 24 Hours

Scroll right to see more
 ConditionsComfort  
Time TempWeatherWind HumidityBarometerVisibility
3:22 PM
Wed, May 4
81 °FScattered clouds.9 mph24%29.92 "HgN/A
2:30 PM81 °FScattered clouds.9 mph24%29.92 "HgN/A
2:00 PM79 °FScattered clouds.7 mph28%29.95 "HgN/A
1:30 PM79 °FScattered clouds.12 mph26%29.95 "HgN/A
12:30 PM77 °FScattered clouds.12 mph30%29.98 "Hg5 mi
12:00 PM75 °FClear.5 mph34%29.98 "Hg5 mi
11:30 AM73 °FClear.9 mph33%29.98 "Hg5 mi
11:00 AM72 °FClear.5 mph41%30.01 "Hg5 mi
10:30 AM66 °FClear.No wind49%29.98 "Hg5 mi
9:30 AM63 °FClear.No wind59%29.98 "Hg5 mi
9:00 AM61 °FClear.5 mph63%30.01 "Hg5 mi
8:30 AM55 °FClear.No wind77%29.98 "Hg5 mi
8:00 AM54 °FClear.No wind82%29.98 "Hg5 mi
7:30 AM50 °FPassing clouds.No wind88%29.98 "HgN/A
6:21 AM52 °FClear.2 mph82%29.95 "Hg10 mi
5:22 AM52 °FClear.2 mph82%29.95 "Hg10 mi
4:21 AM52 °FClear.No wind82%29.95 "Hg10 mi
3:22 AM55 °FClear.2 mph77%29.92 "Hg10 mi
2:22 AM55 °FClear.No wind82%29.95 "Hg10 mi
1:21 AM57 °FClear.2 mph72%29.95 "Hg10 mi
12:21 AM59 °FClear.No wind68%29.95 "Hg10 mi
11:22 PM
Tue, May 3
61 °FPassing clouds.2 mph63%29.95 "HgN/A
10:22 PM64 °FPassing clouds.No wind56%29.95 "HgN/A
9:24 PM68 °FScattered clouds.5 mph40%29.95 "HgN/A
8:21 PM72 °FScattered clouds.7 mph33%29.92 "HgN/A
7:22 PM75 °FScattered clouds.9 mph27%29.89 "HgN/A
6:21 PM77 °FScattered clouds.12 mph28%29.89 "HgN/A
5:22 PM77 °FBroken clouds.14 mph28%29.89 "HgN/A
Weather by CustomWeather, © 2016

See weather overviewHow to use our weather pages